Showing default

EXPRESS AM-7, 40505

Orbit data source: Space-Track

EXPRESS AM-7, 40505 is a payload satellite owned by KosSvyaz (CIS) in GEO that was launched on Wed, 18 Mar 2015 UTC via a PROTON-M/BRIZ-M launch vehicle from the Tyuratam Missile And Space Complex (TTMTR). Payload-class satellites include a variety of spacecraft equipped with specific instruments for various scientific and technological missions. These include communications satellites like Starlink; space stations such as the ISS; scientific satellites like the Hubble; Earth observation satellites from companies like Planet Labs, Umbra, and HawkEye 360; GPS; miniature CubeSats for education and research; and military/defense satellites.

Not visible in the next 10 days
Identifier
40505, 2015-012A
Orbit
GEO
Country
Flag of CISCIS
Related business
Manufacturer
Airbus/Toulouse
Mission
Operational Commercial Communications
Bus & Motor
EUROSTAR 3000, R-4D?
Mass
5,712 kg wet, ~2,500 kg dry
Launch date (UTC)
2015-03-18 (11 years ago)
Launch vehicle
PROTON-M/BRIZ-M
Launch site
Tyuratam Missile And Space Complex (TTMTR)
Object type
Payload
Rocket body
Debris
Shape & HBR
Cyl + 2 Pan, 19.9 m
Radar Cross Section
40.740 m², Large (>1 m²)

Expand to show TLE details & history
Last TLE update: 10 hours ago

TLE from 10 hours ago
0 EXPRESS AM-7
1 40505U 15012A   26071.21211517  .00000151  00000-0  00000-0 0  9996
2 40505   0.0178 143.3434 0002948 196.1963 306.6519  1.00272131 40036
Epoch: 2026-03-12T05:05Z
TLE epoch observation values (Epoch: 2026-03-12T05:05:26.750Z)
Latitude
0.02409°
Longitude
39.95651°
Altitude
35,778.544 km
Speed
3.075 km/s
True Right ascension
19h 04m 43s
True Declination
0° 01' 27"
Sunlit
Object was in daylight at epoch
Visualization orbit readout
Latitude
Unknown
Longitude
Unknown
Altitude
Unknown
Speed
Unknown
Apparent Right ascension
Unknown
Apparent Declination
Unknown
Sunlit
N/A
Visualization observer readout
Local Sidereal Time
19:04:43
Azimuth
Unknown
Elevation
Unknown
Doppler factor
Unknown
Orbital elements
Apogee altitude
35,799.999 km
Perigee altitude
35,775.138 km
Semi-major axis
42,165.705 km
Eccentricity
0.00029
Inclination
0.0178°
RAAN
143.3434°
Arg. of periapsis
196.1963°
True anomaly
306.62479°
Mean anomaly
306.6519°
Eccentric anomaly
306.63835°
Mean motion
0.25067 °/min
Orbital period
1,436.15 mins
BSTAR
0
Loading maneuver chart data...
Computing Atmospheric mass density...
Loading historical data...
Loading historical data...
Loading historical data...
Loading historical data...
Loading historical data...
Loading historical data...
Loading historical data...
Other satellites on launch #12 in the year 2015 (2015-03-18 UTC)

Documentation

Showing up to 5 results
|